Showing default

ORBCOMM FM 34, 25986

Orbit data source: Space-Track

ORBCOMM FM 34, 25986 is a payload satellite owned by Orbcomm (US) in LEO that was launched on Sat, 04 Dec 1999 UTC via a PEGASUS XL/HAPS launch vehicle from the Air Force Eastern Test Range (AFETR). Payload-class satellites include a variety of spacecraft equipped with specific instruments for various scientific and technological missions. These include communications satellites like Starlink; space stations such as the ISS; scientific satellites like the Hubble; Earth observation satellites from companies like Planet Labs, Umbra, and HawkEye 360; GPS; miniature CubeSats for education and research; and military/defense satellites.

Loading next visibility...
Identifier
25986, 1999-065G
Orbit
LEO
Country
Flag of USUS / ORB
Related business
Manufacturer
OSC-Germantown
Mission
Non-operational Commercial Communications
Bus & Motor
MICROSTAR, Unknown motor
Mass
44 kg wet, 44 kg dry
Launch date (UTC)
1999-12-04 (27 years ago)
Launch vehicle
PEGASUS XL/HAPS
Launch site
Air Force Eastern Test Range (AFETR)
Object type
Payload
Rocket body
Debris
Shape & HBR
Cyl + 2 Pan, 4.2 m
Radar Cross Section
1.484 m², Medium (>0.1 m² and < 1m²)

Expand to show TLE details & history
Last TLE update: 3 days ago

TLE from 3 days ago
0 ORBCOMM FM 34
1 25986U 99065G   26170.00911564  .00000376  00000-0  16994-3 0  9999
2 25986  45.0371 159.6254 0004446 348.5910  11.4837 14.37949839387685
Epoch: 2026-06-19T00:13Z
TLE epoch observation values (Epoch: 2026-06-19T00:13:07.591Z)
Latitude
-0.00003°
Longitude
-110.90051°
Altitude
762.171 km
Speed
7.476 km/s
True Right ascension
10h 38m 30s
True Declination
0° 00' 00"
Sunlit
Object was in daylight at epoch
Visualization orbit readout
Latitude
Unknown
Longitude
Unknown
Altitude
Unknown
Speed
Unknown
Apparent Right ascension
Unknown
Apparent Declination
Unknown
Sunlit
N/A
Visualization observer readout
Local Sidereal Time
23:09:11
Azimuth
Unknown
Elevation
Unknown
Doppler factor
Unknown
Orbital elements
Apogee altitude
769.997 km
Perigee altitude
763.644 km
Semi-major axis
7,144.957 km
Eccentricity
0.00044
Inclination
45.0371°
RAAN
159.6254°
Arg. of periapsis
348.591°
True anomaly
11.49385°
Mean anomaly
11.4837°
Eccentric anomaly
11.48877°
Mean motion
3.59372 °/min
Orbital period
100.17 mins
BSTAR
0.00016994
Loading maneuver chart data...
Computing Atmospheric mass density...

Documentation

Showing up to 5 results
|